Sioux Falls, SD

9:16 PM CDT on March 28, 2017 (GMT -0500)
Foss

Weather History for KFSD - January, 2015

Change the Weather History Date:

Wednesday, January 28, 2015

  Actual Average Record
Temperature  
Mean Temperature 40 °F 17 °F  
Max Temperature 46 °F 27 °F 55 °F (1896)
Min Temperature 33 °F 7 °F -27 °F (1966)
Degree Days  
Heating Degree Days 25 48  
Month to date heating degree days 1253 1362  
Since 1 July heating degree days 4258 4495  
Cooling Degree Days 0 0  
Month to date cooling degree days 0 0  
Year to date cooling degree days 0 0  
Moisture  
Dew Point 32 °F    
Average Humidity 81    
Maximum Humidity 92    
Minimum Humidity 70    
Precipitation  
Precipitation 0.00 in 0.01 in 0.80 in (1909)
Month to date precipitation 0.57 0.50  
Year to date precipitation 0.57 0.50  
Snow  
Snow 0.00 in 0.20 in 7.70 in (1947)
Month to date snowfall 6.6 6.9  
Since 1 July snowfall 20.8 23.8  
Snow Depth T in    
Sea Level Pressure  
Sea Level Pressure 29.86 in    
Wind  
Wind Speed 12 mph (SE)    
Max Wind Speed 32 mph    
Max Gust Speed 43 mph    
Visibility 10 miles    
Events      
T = Trace of Precipitation, MM = Missing Value Source: NWS Daily Summary

Daily Weather History Graph

Daily Weather History Graph

Search for Another Location

Airport or City:

Trip Planner

Search our weather history database for the weather conditions in past years. The results will help you decide how hot, cold, wet, or windy it might be!

Date:

Astronomy

Jan. 28, 2015 Rise Set
Actual Time 7:47 AM CST 5:32 PM CST
Civil Twilight 7:16 AM CST 6:03 PM CST
Nautical Twilight 6:42 AM CST 6:38 PM CST
Astronomical Twilight 6:08 AM CST 7:11 PM CST
Moon 12:38 PM CST (1/28) 2:19 AM CST (1/28)
Length of Visible Light 10h 46m
Length of Day
9h 45m
Waxing Gibbous, 66% of the Moon is Illuminated
Jan 28
Waxing Gibbous
Feb 3
Full
Feb 11
Last Quarter
Feb 18
New
Feb 25
First Quarter

Hourly Weather History & Observations

Time (CST) Temp. Windchill Dew Point Humidity Pressure Visibility Wind Dir Wind Speed Gust Speed Precip Events Conditions
12:56 AM 36.0 °F 28.5 °F 30.0 °F 79% 29.97 in 10.0 mi South 10.4 mph - N/A   Clear
1:56 AM 35.1 °F 26.4 °F 30.0 °F 82% 29.95 in 10.0 mi SSE 12.7 mph - N/A   Clear
2:56 AM 34.0 °F 26.0 °F 30.0 °F 85% 29.93 in 10.0 mi SE 10.4 mph - N/A   Clear
3:56 AM 34.0 °F 26.0 °F 30.0 °F 85% 29.90 in 10.0 mi SSE 10.4 mph - N/A   Clear
4:56 AM 34.0 °F 24.6 °F 30.0 °F 85% 29.87 in 10.0 mi SSE 13.8 mph - N/A   Mostly Cloudy
5:56 AM 34.0 °F 24.6 °F 30.0 °F 85% 29.87 in 10.0 mi SSE 13.8 mph - N/A   Mostly Cloudy
6:56 AM 33.1 °F 23.4 °F 28.9 °F 85% 29.85 in 10.0 mi SSE 13.8 mph - N/A   Mostly Cloudy
7:56 AM 33.1 °F 23.0 °F 28.9 °F 85% 29.83 in 10.0 mi SSE 15.0 mph - N/A   Mostly Cloudy
8:56 AM 33.1 °F 23.9 °F 30.0 °F 89% 29.81 in 10.0 mi South 12.7 mph 20.7 mph N/A   Overcast
9:56 AM 35.1 °F 25.5 °F 30.9 °F 85% 29.81 in 10.0 mi SSE 15.0 mph - N/A   Overcast
10:56 AM 37.0 °F 29.3 °F 32.0 °F 82% 29.79 in 10.0 mi SSE 11.5 mph - N/A   Mostly Cloudy
11:56 AM 39.9 °F 32.5 °F 34.0 °F 79% 29.77 in 10.0 mi SSE 12.7 mph - N/A   Mostly Cloudy
12:56 PM 41.0 °F 33.9 °F 34.0 °F 76% 29.72 in 10.0 mi SSE 12.7 mph - N/A   Mostly Cloudy
1:56 PM 43.0 °F 39.5 °F 35.1 °F 74% 29.71 in 10.0 mi South 5.8 mph - N/A   Mostly Cloudy
2:56 PM 45.0 °F - 35.1 °F 68% 29.70 in 10.0 mi Calm Calm - N/A   Mostly Cloudy
3:56 PM 45.0 °F 42.6 °F 35.1 °F 68% 29.71 in 10.0 mi West 4.6 mph - N/A   Scattered Clouds
4:56 PM 43.0 °F 40.3 °F 35.1 °F 74% 29.75 in 10.0 mi NW 4.6 mph - N/A   Mostly Cloudy
5:56 PM 36.0 °F 32.1 °F 33.1 °F 89% 29.79 in 10.0 mi NE 4.6 mph - N/A   Partly Cloudy
6:31 PM 36.0 °F 32.1 °F 33.1 °F 89% 29.77 in 8.0 mi North 4.6 mph - N/A   Overcast
6:56 PM 36.0 °F 31.1 °F 33.1 °F 89% 29.83 in 7.0 mi North 5.8 mph - N/A   Overcast
7:56 PM 36.0 °F 30.3 °F 33.1 °F 89% 29.87 in 7.0 mi NW 6.9 mph - N/A   Overcast
8:14 PM 37.0 °F 29.3 °F 34.0 °F 89% 29.84 in 8.0 mi NNW 11.5 mph - N/A   Overcast
8:56 PM 37.9 °F 27.9 °F 34.0 °F 86% 29.92 in 10.0 mi NNW 19.6 mph 25.3 mph N/A   Overcast
9:08 PM 37.0 °F 24.3 °F 34.0 °F 89% 29.89 in 9.0 mi NNW 31.1 mph 35.7 mph N/A   Overcast
9:56 PM 34.0 °F 21.5 °F 30.9 °F 89% 29.99 in 10.0 mi NNW 24.2 mph 38.0 mph N/A   Overcast
10:15 PM 35.1 °F 23.0 °F 30.0 °F 82% 29.95 in 10.0 mi NNW 24.2 mph 35.7 mph N/A   Overcast
10:34 PM 35.1 °F 22.2 °F 30.0 °F 82% 29.97 in 10.0 mi NNW 27.6 mph 40.3 mph N/A   Overcast
10:56 PM 34.0 °F 21.0 °F 30.0 °F 85% 30.02 in 10.0 mi NNW 26.5 mph 35.7 mph N/A   Overcast
11:56 PM 34.0 °F 21.8 °F 28.9 °F 82% 30.05 in 10.0 mi NNW 23.0 mph 35.7 mph N/A   Overcast